sat.trackr.live / text

‹ back to catalog

STARLINK-30215

NORAD 57445 · 2023-105R

PAYLOAD ACTIVE UNKNOWN

§ Identity

Operator
Country
US
Launch date
2023-07-24
Launch site
AFETR
Launch vehicle
Mass (kg)
RCS (m²)

Purposes: comms

External: N2YO · Heavens-Above · Gunter

§ Orbital elements

Epoch: 2026-05-24T19:54:19.439424Z

Period
94.27 min
Inclination
43.0020°
Eccentricity
0.0001056
Mean motion
15.27571129 rev/d
Perigee alt
482.4 km
Apogee alt
483.8 km
Semi-major
6,861.2 km
B*
2.7115e-6
RAAN
190.0899°
Arg perigee
276.3516°
Mean anomaly
83.7216°
Rev number
15,706

§ Raw data

STARLINK-302151 57445U 23105R   26144.82939166 -.00000187  00000+0  27115-5 0  99942 57445  43.0020 190.0899 0001056 276.3516  83.7216 15.27571129157060

JSON: /api/v1/satellites/57445 · /tle

For live sub-satellite position, see the globe view (requires WebGL).

§ Visibility from observer

Set your observer location to see the next 7 days of passes ≥ 10°. The values pass through the URL so the page stays shareable.

No JS? Fill the form by hand. The geolocation button needs JavaScript.